Time,TemperatureF,DewpointF,PressureIn,WindDirection,WindDirectionDegrees,WindSpeedMPH,WindSpeedGustMPH,Humidity,HourlyPrecipIn,Conditions,Clouds,dailyrainin,SoftwareType,DateUTC
2014-03-07 00:02:00,46.6,44.7,29.92,ESE,119,5.0,5.0,93,0.00,,,0.11,Wunderground v.1.15,2014-03-07 08:02:00,
2014-03-07 00:07:00,46.7,44.8,29.92,ESE,121,5.0,9.0,93,0.00,,,0.11,Wunderground v.1.15,2014-03-07 08:07:00,
2014-03-07 00:13:00,46.7,44.8,29.92,East,100,5.0,7.0,93,0.00,,,0.11,Wunderground v.1.15,2014-03-07 08:13:00,
2014-03-07 00:18:00,46.5,44.6,29.92,ESE,114,5.0,7.0,93,0.00,,,0.11,Wunderground v.1.15,2014-03-07 08:18:00,
2014-03-07 00:24:00,46.5,44.9,29.92,SE,137,5.0,9.0,94,0.00,,,0.11,Wunderground v.1.15,2014-03-07 08:24:00,
2014-03-07 00:30:00,46.5,44.9,29.92,ESE,107,5.0,5.0,94,0.00,,,0.11,Wunderground v.1.15,2014-03-07 08:30:00,
2014-03-07 00:35:00,46.5,44.6,29.93,ESE,123,5.0,7.0,93,0.00,,,0.11,Wunderground v.1.15,2014-03-07 08:35:00,
2014-03-07 00:40:00,46.5,44.6,29.93,ESE,113,4.0,4.0,93,0.00,,,0.11,Wunderground v.1.15,2014-03-07 08:40:00,
2014-03-07 00:46:00,46.7,44.8,29.94,ESE,114,4.0,7.0,93,0.00,,,0.11,Wunderground v.1.15,2014-03-07 08:46:00,
2014-03-07 00:52:00,46.7,44.5,29.94,SSE,155,6.0,10.0,92,0.00,,,0.11,Wunderground v.1.15,2014-03-07 08:52:00,
2014-03-07 00:58:00,46.7,44.5,29.94,SE,124,5.0,10.0,92,0.00,,,0.11,Wunderground v.1.15,2014-03-07 08:58:00,
2014-03-07 01:03:00,46.8,44.6,29.95,ENE,73,3.0,5.0,92,0.00,,,0.11,Wunderground v.1.15,2014-03-07 09:03:00,
2014-03-07 01:09:00,46.8,44.6,29.95,ESE,108,3.0,5.0,92,0.00,,,0.11,Wunderground v.1.15,2014-03-07 09:09:00,
2014-03-07 01:15:00,46.9,44.4,29.95,SSE,155,3.0,8.0,91,0.00,,,0.11,Wunderground v.1.15,2014-03-07 09:15:00,
2014-03-07 01:20:00,47.0,44.5,29.96,SE,143,3.0,3.0,91,0.00,,,0.11,Wunderground v.1.15,2014-03-07 09:20:00,
2014-03-07 01:26:00,47.0,44.2,29.96,WSW,253,3.0,6.0,90,0.00,,,0.11,Wunderground v.1.15,2014-03-07 09:26:00,
2014-03-07 01:32:00,47.0,44.2,29.97,SW,229,2.0,2.0,90,0.00,,,0.11,Wunderground v.1.15,2014-03-07 09:32:00,
2014-03-07 01:38:00,47.1,44.3,29.97,North,6,2.0,3.0,90,0.00,,,0.11,Wunderground v.1.15,2014-03-07 09:38:00,
2014-03-07 01:43:00,47.0,44.2,29.97,East,92,3.0,6.0,90,0.00,,,0.11,Wunderground v.1.15,2014-03-07 09:43:00,
2014-03-07 01:49:00,47.1,44.3,29.97,ESE,107,4.0,8.0,90,0.00,,,0.11,Wunderground v.1.15,2014-03-07 09:49:00,
2014-03-07 01:54:00,47.0,44.2,29.98,ESE,117,3.0,4.0,90,0.00,,,0.11,Wunderground v.1.15,2014-03-07 09:54:00,
2014-03-07 02:00:00,46.9,44.1,29.98,ESE,116,3.0,3.0,90,0.00,,,0.11,Wunderground v.1.15,2014-03-07 10:00:00,
2014-03-07 02:05:00,46.8,44.3,29.98,SW,228,2.0,4.0,91,0.00,,,0.11,Wunderground v.1.15,2014-03-07 10:05:00,
2014-03-07 02:10:00,46.7,44.2,29.98,South,172,2.0,2.0,91,0.00,,,0.11,Wunderground v.1.15,2014-03-07 10:10:00,
2014-03-07 02:16:00,46.6,44.1,29.98,East,98,2.0,4.0,91,0.00,,,0.11,Wunderground v.1.15,2014-03-07 10:16:00,
2014-03-07 02:22:00,46.6,44.1,29.99,East,96,3.0,4.0,91,0.00,,,0.11,Wunderground v.1.15,2014-03-07 10:22:00,
2014-03-07 02:27:00,46.5,44.0,29.99,SE,134,3.0,6.0,91,0.00,,,0.11,Wunderground v.1.15,2014-03-07 10:27:00,
2014-03-07 02:33:00,46.6,44.1,29.99,SE,137,4.0,7.0,91,0.00,,,0.11,Wunderground v.1.15,2014-03-07 10:33:00,
2014-03-07 02:39:00,46.7,44.2,29.99,SE,139,4.0,7.0,91,0.00,,,0.11,Wunderground v.1.15,2014-03-07 10:39:00,
2014-03-07 02:45:00,46.7,43.9,29.99,ESE,123,3.0,5.0,90,0.00,,,0.11,Wunderground v.1.15,2014-03-07 10:45:00,
2014-03-07 02:51:00,46.7,43.9,29.99,ENE,70,4.0,6.0,90,0.00,,,0.11,Wunderground v.1.15,2014-03-07 10:51:00,
2014-03-07 02:56:00,46.8,44.0,29.99,NE,46,4.0,6.0,90,0.00,,,0.11,Wunderground v.1.15,2014-03-07 10:56:00,
2014-03-07 03:02:00,46.8,43.7,30.00,ESE,119,3.0,4.0,89,0.00,,,0.11,Wunderground v.1.15,2014-03-07 11:02:00,
2014-03-07 03:08:00,46.7,43.6,30.00,North,8,2.0,4.0,89,0.00,,,0.11,Wunderground v.1.15,2014-03-07 11:08:00,
2014-03-07 03:14:00,46.7,43.6,30.00,South,170,2.0,4.0,89,0.00,,,0.11,Wunderground v.1.15,2014-03-07 11:14:00,
2014-03-07 03:19:00,46.7,43.6,30.00,SSE,156,2.0,4.0,89,0.00,,,0.11,Wunderground v.1.15,2014-03-07 11:19:00,
2014-03-07 03:25:00,46.6,43.5,30.00,WSW,240,2.0,4.0,89,0.00,,,0.11,Wunderground v.1.15,2014-03-07 11:25:00,
2014-03-07 03:30:00,46.4,43.3,30.00,SE,134,2.0,3.0,89,0.00,,,0.11,Wunderground v.1.15,2014-03-07 11:30:00,
2014-03-07 03:36:00,46.4,43.3,30.00,SE,134,3.0,3.0,89,0.00,,,0.11,Wunderground v.1.15,2014-03-07 11:36:00,
2014-03-07 03:41:00,-999.9,-99.9,30.00,North,32767,-999.0,0.0,255,-99.99,,,0.11,Wunderground v.1.15,2014-03-07 11:41:00,
2014-03-07 03:46:00,-999.9,-99.9,30.01,North,32767,-999.0,0.0,255,-99.99,,,0.11,Wunderground v.1.15,2014-03-07 11:46:00,
2014-03-07 03:52:00,-999.9,-99.9,30.01,North,32767,-999.0,0.0,255,-99.99,,,0.11,Wunderground v.1.15,2014-03-07 11:52:00,
2014-03-07 03:58:00,-999.9,-99.9,30.01,North,32767,-999.0,0.0,255,-99.99,,,0.11,Wunderground v.1.15,2014-03-07 11:58:00,
2014-03-07 04:04:00,-999.9,-99.9,30.01,North,32767,-999.0,0.0,255,-99.99,,,0.11,Wunderground v.1.15,2014-03-07 12:04:00,
2014-03-07 04:09:00,-999.9,-99.9,30.01,North,32767,-999.0,0.0,255,-99.99,,,0.11,Wunderground v.1.15,2014-03-07 12:09:00,
2014-03-07 04:14:00,-999.9,-99.9,30.01,North,32767,-999.0,0.0,255,-99.99,,,0.11,Wunderground v.1.15,2014-03-07 12:14:00,
2014-03-07 04:19:00,-999.9,-99.9,30.02,North,32767,-999.0,0.0,255,-99.99,,,0.11,Wunderground v.1.15,2014-03-07 12:19:00,
2014-03-07 04:25:00,-999.9,-99.9,30.02,North,32767,-999.0,0.0,255,-99.99,,,0.11,Wunderground v.1.15,2014-03-07 12:25:00,
2014-03-07 04:31:00,-999.9,-99.9,30.02,North,32767,-999.0,0.0,255,-99.99,,,0.11,Wunderground v.1.15,2014-03-07 12:31:00,
2014-03-07 04:37:00,-999.9,-99.9,30.02,North,32767,-999.0,0.0,255,-99.99,,,0.11,Wunderground v.1.15,2014-03-07 12:37:00,
2014-03-07 04:43:00,-999.9,-99.9,30.03,North,32767,-999.0,0.0,255,-99.99,,,0.11,Wunderground v.1.15,2014-03-07 12:43:00,
2014-03-07 04:49:00,-999.9,-99.9,30.03,North,32767,-999.0,0.0,255,-99.99,,,0.11,Wunderground v.1.15,2014-03-07 12:49:00,
2014-03-07 04:54:00,-999.9,-99.9,30.03,North,32767,-999.0,0.0,255,-99.99,,,0.11,Wunderground v.1.15,2014-03-07 12:54:00,
2014-03-07 04:59:00,-999.9,-99.9,30.03,North,32767,-999.0,0.0,255,-99.99,,,0.11,Wunderground v.1.15,2014-03-07 12:59:00,
2014-03-07 05:05:00,-999.9,-99.9,30.03,North,32767,-999.0,0.0,255,-99.99,,,0.11,Wunderground v.1.15,2014-03-07 13:05:00,
2014-03-07 05:10:00,-999.9,-99.9,30.04,North,32767,-999.0,0.0,255,-99.99,,,0.11,Wunderground v.1.15,2014-03-07 13:10:00,
2014-03-07 05:16:00,-999.9,-99.9,30.04,North,32767,-999.0,0.0,255,-99.99,,,0.11,Wunderground v.1.15,2014-03-07 13:16:00,
2014-03-07 05:21:00,-999.9,-99.9,30.04,North,32767,-999.0,0.0,255,-99.99,,,0.11,Wunderground v.1.15,2014-03-07 13:21:00,
2014-03-07 05:26:00,-999.9,-99.9,30.04,North,32767,-999.0,0.0,255,-99.99,,,0.11,Wunderground v.1.15,2014-03-07 13:26:00,
2014-03-07 05:31:00,-999.9,-99.9,30.05,North,32767,-999.0,0.0,255,-99.99,,,0.11,Wunderground v.1.15,2014-03-07 13:31:00,
2014-03-07 05:37:00,-999.9,-99.9,30.05,North,32767,-999.0,0.0,255,-99.99,,,0.11,Wunderground v.1.15,2014-03-07 13:37:00,
2014-03-07 05:43:00,-999.9,-99.9,30.05,North,32767,-999.0,0.0,255,-99.99,,,0.11,Wunderground v.1.15,2014-03-07 13:43:00,
2014-03-07 05:48:00,-999.9,-99.9,30.05,North,32767,-999.0,0.0,255,-99.99,,,0.11,Wunderground v.1.15,2014-03-07 13:48:00,
2014-03-07 05:53:00,-999.9,-99.9,30.05,North,32767,-999.0,0.0,255,-99.99,,,0.11,Wunderground v.1.15,2014-03-07 13:53:00,
2014-03-07 05:59:00,-999.9,-99.9,30.06,North,32767,-999.0,0.0,255,-99.99,,,0.11,Wunderground v.1.15,2014-03-07 13:59:00,
2014-03-07 06:04:00,-999.9,-99.9,30.07,North,32767,-999.0,0.0,255,-99.99,,,0.11,Wunderground v.1.15,2014-03-07 14:04:00,
2014-03-07 06:10:00,-999.9,-99.9,30.07,North,32767,-999.0,0.0,255,-99.99,,,0.11,Wunderground v.1.15,2014-03-07 14:10:00,
2014-03-07 06:16:00,-999.9,-99.9,30.07,North,32767,-999.0,0.0,255,-99.99,,,0.11,Wunderground v.1.15,2014-03-07 14:16:00,
2014-03-07 06:22:00,-999.9,-99.9,30.08,North,32767,-999.0,0.0,255,-99.99,,,0.11,Wunderground v.1.15,2014-03-07 14:22:00,
2014-03-07 06:28:00,-999.9,-99.9,30.08,North,32767,-999.0,0.0,255,-99.99,,,0.11,Wunderground v.1.15,2014-03-07 14:28:00,
2014-03-07 06:33:00,-999.9,-99.9,30.07,North,32767,-999.0,0.0,255,-99.99,,,0.11,Wunderground v.1.15,2014-03-07 14:33:00,
2014-03-07 06:39:00,-999.9,-99.9,30.07,North,32767,-999.0,0.0,255,-99.99,,,0.11,Wunderground v.1.15,2014-03-07 14:39:00,
2014-03-07 06:44:00,-999.9,-99.9,30.08,North,32767,-999.0,0.0,255,-99.99,,,0.11,Wunderground v.1.15,2014-03-07 14:44:00,
2014-03-07 06:49:00,-999.9,-99.9,30.08,North,32767,-999.0,0.0,255,-99.99,,,0.11,Wunderground v.1.15,2014-03-07 14:49:00,
2014-03-07 06:55:00,-999.9,-99.9,30.08,North,32767,-999.0,0.0,255,-99.99,,,0.11,Wunderground v.1.15,2014-03-07 14:55:00,
2014-03-07 07:01:00,-999.9,-99.9,30.08,North,32767,-999.0,0.0,255,-99.99,,,0.11,Wunderground v.1.15,2014-03-07 15:01:00,
2014-03-07 07:06:00,-999.9,-99.9,30.08,North,32767,-999.0,0.0,255,-99.99,,,0.11,Wunderground v.1.15,2014-03-07 15:06:00,
2014-03-07 07:12:00,-999.9,-99.9,30.09,North,32767,-999.0,0.0,255,-99.99,,,0.11,Wunderground v.1.15,2014-03-07 15:12:00,
2014-03-07 07:17:00,-999.9,-99.9,30.09,North,32767,-999.0,0.0,255,-99.99,,,0.11,Wunderground v.1.15,2014-03-07 15:17:00,
2014-03-07 07:23:00,-999.9,-99.9,30.09,North,32767,-999.0,0.0,255,-99.99,,,0.11,Wunderground v.1.15,2014-03-07 15:23:00,
2014-03-07 07:29:00,-999.9,-99.9,30.09,North,32767,-999.0,0.0,255,-99.99,,,0.11,Wunderground v.1.15,2014-03-07 15:29:00,
2014-03-07 07:34:00,-999.9,-99.9,30.09,North,32767,-999.0,0.0,255,-99.99,,,0.11,Wunderground v.1.15,2014-03-07 15:34:00,
2014-03-07 07:39:00,46.0,44.1,30.10,SSE,164,5.0,5.0,93,0.00,,,0.11,Wunderground v.1.15,2014-03-07 15:39:00,
2014-03-07 07:44:00,46.0,44.1,30.10,South,176,3.0,6.0,93,0.00,,,0.11,Wunderground v.1.15,2014-03-07 15:44:00,
2014-03-07 07:50:00,45.9,44.0,30.10,SSE,152,2.0,4.0,93,0.00,,,0.11,Wunderground v.1.15,2014-03-07 15:50:00,
2014-03-07 07:55:00,46.0,43.8,30.10,SE,134,2.0,4.0,92,0.00,,,0.11,Wunderground v.1.15,2014-03-07 15:55:00,
2014-03-07 08:00:00,46.0,43.8,30.10,SE,129,3.0,3.0,92,0.00,,,0.11,Wunderground v.1.15,2014-03-07 16:00:00,
2014-03-07 08:05:00,46.1,43.9,30.11,SW,221,2.0,3.0,92,0.00,,,0.11,Wunderground v.1.15,2014-03-07 16:05:00,
2014-03-07 08:11:00,46.2,44.0,30.11,ENE,60,1.0,1.0,92,0.00,,,0.11,Wunderground v.1.15,2014-03-07 16:11:00,
2014-03-07 08:16:00,46.2,43.7,30.11,NE,46,1.0,3.0,91,0.00,,,0.11,Wunderground v.1.15,2014-03-07 16:16:00,
2014-03-07 08:21:00,46.3,43.8,30.12,WNW,283,1.0,2.0,91,0.00,,,0.11,Wunderground v.1.15,2014-03-07 16:21:00,
2014-03-07 08:26:00,46.3,44.1,30.12,East,96,2.0,3.0,92,0.00,,,0.11,Wunderground v.1.15,2014-03-07 16:26:00,
2014-03-07 08:31:00,46.5,44.0,30.12,SSE,158,1.0,3.0,91,0.00,,,0.11,Wunderground v.1.15,2014-03-07 16:31:00,
2014-03-07 08:37:00,47.0,44.5,30.12,SSW,207,2.0,3.0,91,0.00,,,0.11,Wunderground v.1.15,2014-03-07 16:37:00,
2014-03-07 08:42:00,47.2,44.4,30.12,SE,136,2.0,4.0,90,0.00,,,0.11,Wunderground v.1.15,2014-03-07 16:42:00,
2014-03-07 08:48:00,47.3,44.2,30.12,SSE,166,3.0,8.0,89,0.00,,,0.11,Wunderground v.1.15,2014-03-07 16:48:00,
2014-03-07 08:53:00,47.5,44.4,30.12,SSE,156,3.0,4.0,89,0.00,,,0.11,Wunderground v.1.15,2014-03-07 16:53:00,
2014-03-07 08:59:00,47.5,44.1,30.13,ESE,114,3.0,10.0,88,0.00,,,0.11,Wunderground v.1.15,2014-03-07 16:59:00,
2014-03-07 09:05:00,47.1,43.7,30.13,WSW,243,4.0,7.0,88,0.00,,,0.11,Wunderground v.1.15,2014-03-07 17:05:00,
2014-03-07 09:10:00,46.8,43.7,30.13,SSW,205,3.0,3.0,89,0.00,,,0.11,Wunderground v.1.15,2014-03-07 17:10:00,
2014-03-07 09:16:00,46.8,44.0,30.13,SSE,157,3.0,7.0,90,0.00,,,0.11,Wunderground v.1.15,2014-03-07 17:16:00,
2014-03-07 09:21:00,46.9,44.1,30.13,West,269,3.0,4.0,90,0.00,,,0.11,Wunderground v.1.15,2014-03-07 17:21:00,
2014-03-07 09:26:00,47.1,44.3,30.13,East,84,3.0,8.0,90,0.00,,,0.11,Wunderground v.1.15,2014-03-07 17:26:00,
2014-03-07 09:32:00,47.3,44.5,30.13,ENE,76,2.0,5.0,90,0.00,,,0.11,Wunderground v.1.15,2014-03-07 17:32:00,
2014-03-07 09:37:00,47.4,44.3,30.13,South,170,2.0,5.0,89,0.00,,,0.11,Wunderground v.1.15,2014-03-07 17:37:00,
2014-03-07 09:42:00,47.4,43.7,30.14,South,181,3.0,6.0,87,0.00,,,0.11,Wunderground v.1.15,2014-03-07 17:42:00,
2014-03-07 09:48:00,47.5,43.8,30.13,NE,45,3.0,6.0,87,0.00,,,0.11,Wunderground v.1.15,2014-03-07 17:48:00,
2014-03-07 09:54:00,47.5,43.8,30.13,SSE,158,4.0,10.0,87,0.00,,,0.11,Wunderground v.1.15,2014-03-07 17:54:00,
2014-03-07 09:59:00,47.3,43.6,30.13,SE,126,5.0,10.0,87,0.00,,,0.11,Wunderground v.1.15,2014-03-07 17:59:00,
2014-03-07 10:05:00,47.5,44.4,30.13,ESE,108,5.0,6.0,89,0.00,,,0.11,Wunderground v.1.15,2014-03-07 18:05:00,
2014-03-07 10:10:00,48.0,44.3,30.12,South,181,4.0,4.0,87,0.00,,,0.11,Wunderground v.1.15,2014-03-07 18:10:00,
2014-03-07 10:15:00,48.5,44.5,30.13,ESE,121,3.0,5.0,86,0.00,,,0.11,Wunderground v.1.15,2014-03-07 18:15:00,
2014-03-07 10:20:00,48.7,43.8,30.13,SSW,205,4.0,5.0,83,0.00,,,0.11,Wunderground v.1.15,2014-03-07 18:20:00,
2014-03-07 10:25:00,48.8,43.9,30.13,South,181,4.0,5.0,83,0.00,,,0.11,Wunderground v.1.15,2014-03-07 18:25:00,
2014-03-07 10:30:00,49.1,44.2,30.13,South,183,3.0,5.0,83,0.00,,,0.11,Wunderground v.1.15,2014-03-07 18:30:00,
2014-03-07 10:36:00,49.3,44.0,30.13,ENE,72,4.0,9.0,82,0.00,,,0.11,Wunderground v.1.15,2014-03-07 18:36:00,
2014-03-07 10:41:00,49.5,43.9,30.13,NE,48,5.0,10.0,81,0.00,,,0.11,Wunderground v.1.15,2014-03-07 18:41:00,
2014-03-07 10:47:00,49.7,44.1,30.13,WSW,250,4.0,10.0,81,0.00,,,0.11,Wunderground v.1.15,2014-03-07 18:47:00,
2014-03-07 10:53:00,49.9,44.0,30.13,NNW,331,3.0,5.0,80,0.00,,,0.11,Wunderground v.1.15,2014-03-07 18:53:00,
2014-03-07 10:58:00,50.4,44.1,30.13,West,262,3.0,6.0,79,0.00,,,0.11,Wunderground v.1.15,2014-03-07 18:58:00,
2014-03-07 11:04:00,50.3,43.7,30.14,WSW,252,4.0,9.0,78,0.00,,,0.11,Wunderground v.1.15,2014-03-07 19:04:00,
2014-03-07 11:09:00,50.1,43.5,30.14,SE,127,5.0,9.0,78,0.00,,,0.11,Wunderground v.1.15,2014-03-07 19:09:00,
2014-03-07 11:15:00,50.4,44.1,30.14,South,170,4.0,5.0,79,0.00,,,0.11,Wunderground v.1.15,2014-03-07 19:15:00,
2014-03-07 11:21:00,50.6,44.0,30.14,East,94,4.0,8.0,78,0.00,,,0.11,Wunderground v.1.15,2014-03-07 19:21:00,
2014-03-07 11:26:00,50.6,44.0,30.14,ESE,122,4.0,9.0,78,0.00,,,0.11,Wunderground v.1.15,2014-03-07 19:26:00,
2014-03-07 11:31:00,50.7,44.1,30.14,East,93,5.0,8.0,78,0.00,,,0.11,Wunderground v.1.15,2014-03-07 19:31:00,
2014-03-07 11:37:00,51.2,44.2,30.14,ESE,115,4.0,8.0,77,0.00,,,0.11,Wunderground v.1.15,2014-03-07 19:37:00,
2014-03-07 11:43:00,51.4,44.1,30.14,West,281,5.0,10.0,76,0.00,,,0.11,Wunderground v.1.15,2014-03-07 19:43:00,
2014-03-07 11:48:00,51.6,43.9,30.14,SSE,159,5.0,10.0,75,0.00,,,0.11,Wunderground v.1.15,2014-03-07 19:48:00,
2014-03-07 11:54:00,51.6,43.9,30.14,West,270,4.0,7.0,75,0.00,,,0.11,Wunderground v.1.15,2014-03-07 19:54:00,
2014-03-07 11:59:00,51.4,43.7,30.14,SE,126,3.0,7.0,75,0.00,,,0.11,Wunderground v.1.15,2014-03-07 19:59:00,
2014-03-07 12:04:00,51.1,44.1,30.15,West,271,4.0,8.0,77,0.00,,,0.11,Wunderground v.1.15,2014-03-07 20:04:00,
2014-03-07 12:10:00,51.0,44.4,30.15,WNW,297,4.0,4.0,78,0.00,,,0.11,Wunderground v.1.15,2014-03-07 20:10:00,
2014-03-07 12:16:00,51.1,44.1,30.15,WNW,298,4.0,7.0,77,0.00,,,0.11,Wunderground v.1.15,2014-03-07 20:16:00,
2014-03-07 12:21:00,51.3,44.7,30.15,WSW,239,4.0,7.0,78,0.00,,,0.11,Wunderground v.1.15,2014-03-07 20:21:00,
2014-03-07 12:26:00,51.5,44.5,30.15,West,265,4.0,7.0,77,0.00,,,0.11,Wunderground v.1.15,2014-03-07 20:26:00,
2014-03-07 12:32:00,51.8,44.8,30.15,South,169,2.0,3.0,77,0.00,,,0.11,Wunderground v.1.15,2014-03-07 20:32:00,
2014-03-07 12:38:00,51.6,44.6,30.15,ENE,78,3.0,5.0,77,0.00,,,0.11,Wunderground v.1.15,2014-03-07 20:38:00,
2014-03-07 12:43:00,51.7,44.7,30.15,WNW,293,3.0,3.0,77,0.00,,,0.11,Wunderground v.1.15,2014-03-07 20:43:00,
2014-03-07 12:48:00,51.7,44.4,30.15,North,356,3.0,6.0,76,0.00,,,0.11,Wunderground v.1.15,2014-03-07 20:48:00,
2014-03-07 12:54:00,52.0,44.3,30.15,SSW,210,3.0,7.0,75,0.00,,,0.11,Wunderground v.1.15,2014-03-07 20:54:00,
2014-03-07 12:59:00,51.9,44.2,30.14,WSW,257,3.0,7.0,75,0.00,,,0.11,Wunderground v.1.15,2014-03-07 20:59:00,
2014-03-07 13:04:00,51.8,44.5,30.14,NW,312,4.0,6.0,76,0.00,,,0.11,Wunderground v.1.15,2014-03-07 21:04:00,
2014-03-07 13:10:00,51.9,44.2,30.14,SSE,148,4.0,4.0,75,0.00,,,0.11,Wunderground v.1.15,2014-03-07 21:10:00,
2014-03-07 13:16:00,52.4,44.7,30.13,WNW,290,4.0,6.0,75,0.00,,,0.11,Wunderground v.1.15,2014-03-07 21:16:00,
2014-03-07 13:21:00,52.5,44.8,30.13,SE,142,2.0,5.0,75,0.00,,,0.11,Wunderground v.1.15,2014-03-07 21:21:00,
2014-03-07 13:26:00,52.7,45.3,30.13,WSW,243,3.0,7.0,76,0.00,,,0.11,Wunderground v.1.15,2014-03-07 21:26:00,
2014-03-07 13:32:00,52.9,45.2,30.13,West,264,3.0,3.0,75,0.00,,,0.11,Wunderground v.1.15,2014-03-07 21:32:00,
2014-03-07 13:38:00,52.9,44.8,30.12,SE,129,4.0,13.0,74,0.00,,,0.11,Wunderground v.1.15,2014-03-07 21:38:00,
2014-03-07 13:43:00,52.8,44.7,30.12,North,4,6.0,7.0,74,0.00,,,0.11,Wunderground v.1.15,2014-03-07 21:43:00,
2014-03-07 13:48:00,53.0,44.9,30.12,South,183,6.0,8.0,74,0.00,,,0.11,Wunderground v.1.15,2014-03-07 21:48:00,
2014-03-07 13:53:00,53.1,44.7,30.11,SE,128,5.0,7.0,73,0.00,,,0.11,Wunderground v.1.15,2014-03-07 21:53:00,
2014-03-07 13:59:00,53.3,44.9,30.11,SW,231,5.0,10.0,73,0.00,,,0.11,Wunderground v.1.15,2014-03-07 21:59:00,
2014-03-07 14:04:00,53.6,44.4,30.11,ESE,103,5.0,7.0,71,0.00,,,0.11,Wunderground v.1.15,2014-03-07 22:04:00,
2014-03-07 14:10:00,53.6,44.4,30.11,SSE,160,5.0,8.0,71,0.00,,,0.00,Wunderground v.1.15,2014-03-07 22:10:00,
2014-03-07 14:16:00,53.1,43.9,30.11,SW,233,5.0,8.0,71,0.00,,,0.00,Wunderground v.1.15,2014-03-07 22:16:00,
2014-03-07 14:22:00,53.6,44.4,30.10,SE,136,3.0,5.0,71,0.00,,,0.00,Wunderground v.1.15,2014-03-07 22:22:00,
2014-03-07 14:27:00,54.0,44.1,30.10,WNW,288,3.0,6.0,69,0.00,,,0.00,Wunderground v.1.15,2014-03-07 22:27:00,
2014-03-07 14:33:00,54.3,44.7,30.10,SW,236,3.0,4.0,70,0.00,,,0.00,Wunderground v.1.15,2014-03-07 22:33:00,
2014-03-07 14:39:00,54.5,44.2,30.10,SE,146,4.0,11.0,68,0.00,,,0.00,Wunderground v.1.15,2014-03-07 22:39:00,
2014-03-07 14:45:00,54.7,44.3,30.10,WNW,292,4.0,4.0,68,0.00,,,0.00,Wunderground v.1.15,2014-03-07 22:45:00,
2014-03-07 14:51:00,55.0,44.2,30.10,SSE,158,3.0,6.0,67,0.00,,,0.00,Wunderground v.1.15,2014-03-07 22:51:00,
2014-03-07 14:56:00,55.3,44.5,30.10,West,269,3.0,6.0,67,0.00,,,0.00,Wunderground v.1.15,2014-03-07 22:56:00,
2014-03-07 15:02:00,55.2,44.4,30.10,SE,129,4.0,4.0,67,0.00,,,0.00,Wunderground v.1.15,2014-03-07 23:02:00,
2014-03-07 15:07:00,55.5,44.7,30.10,West,278,4.0,6.0,67,0.00,,,0.00,Wunderground v.1.15,2014-03-07 23:07:00,
2014-03-07 15:12:00,55.5,44.3,30.11,SSW,206,4.0,4.0,66,0.00,,,0.00,Wunderground v.1.15,2014-03-07 23:12:00,
2014-03-07 15:18:00,55.0,44.2,30.11,South,177,3.0,7.0,67,0.00,,,0.00,Wunderground v.1.15,2014-03-07 23:18:00,
2014-03-07 15:24:00,54.7,44.0,30.11,West,270,3.0,8.0,67,0.00,,,0.00,Wunderground v.1.15,2014-03-07 23:24:00,
2014-03-07 15:30:00,54.3,44.0,30.11,SE,135,3.0,3.0,68,0.00,,,0.00,Wunderground v.1.15,2014-03-07 23:30:00,
2014-03-07 15:36:00,54.0,43.7,30.11,SW,233,2.0,4.0,68,0.00,,,0.00,Wunderground v.1.15,2014-03-07 23:36:00,
2014-03-07 15:41:00,53.8,43.9,30.11,East,96,2.0,3.0,69,0.00,,,0.00,Wunderground v.1.15,2014-03-07 23:41:00,
2014-03-07 15:46:00,54.0,44.1,30.10,SSW,209,1.0,3.0,69,0.00,,,0.00,Wunderground v.1.15,2014-03-07 23:46:00,
2014-03-07 15:51:00,54.2,44.2,30.10,NNW,327,2.0,3.0,69,0.00,,,0.00,Wunderground v.1.15,2014-03-07 23:51:00,
2014-03-07 15:57:00,54.1,44.2,30.10,SE,145,2.0,3.0,69,0.00,,,0.00,Wunderground v.1.15,2014-03-07 23:57:00,
2014-03-07 16:02:00,54.3,44.3,30.10,NW,314,1.0,2.0,69,0.00,,,0.00,Wunderground v.1.15,2014-03-08 00:02:00,
2014-03-07 16:07:00,54.0,44.4,30.10,SSW,205,1.0,2.0,70,0.00,,,0.00,Wunderground v.1.15,2014-03-08 00:07:00,
2014-03-07 16:13:00,53.7,44.1,30.10,SSE,148,1.0,3.0,70,0.00,,,0.00,Wunderground v.1.15,2014-03-08 00:13:00,
2014-03-07 16:18:00,53.2,44.0,30.10,WNW,292,2.0,7.0,71,0.00,,,0.00,Wunderground v.1.15,2014-03-08 00:18:00,
2014-03-07 16:23:00,53.0,44.2,30.10,WSW,250,2.0,4.0,72,0.00,,,0.00,Wunderground v.1.15,2014-03-08 00:23:00,
2014-03-07 16:29:00,52.9,44.1,30.10,SSE,166,1.0,4.0,72,0.00,,,0.00,Wunderground v.1.15,2014-03-08 00:29:00,
2014-03-07 16:34:00,52.7,43.9,30.10,SE,138,1.0,4.0,72,0.00,,,0.00,Wunderground v.1.15,2014-03-08 00:34:00,
2014-03-07 16:40:00,52.4,43.6,30.10,SE,146,3.0,3.0,72,0.00,,,0.00,Wunderground v.1.15,2014-03-08 00:40:00,
2014-03-07 16:46:00,52.3,43.9,30.10,ESE,119,3.0,5.0,73,0.00,,,0.00,Wunderground v.1.15,2014-03-08 00:46:00,
2014-03-07 16:51:00,52.2,43.8,30.10,SE,139,2.0,4.0,73,0.00,,,0.00,Wunderground v.1.15,2014-03-08 00:51:00,
2014-03-07 16:57:00,52.1,43.7,30.10,SE,135,2.0,6.0,73,0.00,,,0.00,Wunderground v.1.15,2014-03-08 00:57:00,
2014-03-07 17:02:00,52.1,44.1,30.10,ENE,75,2.0,2.0,74,0.00,,,0.00,Wunderground v.1.15,2014-03-08 01:02:00,
2014-03-07 17:08:00,52.0,44.0,30.10,ENE,72,1.0,3.0,74,0.00,,,0.00,Wunderground v.1.15,2014-03-08 01:08:00,
2014-03-07 17:15:00,51.9,44.2,30.10,East,99,1.0,6.0,75,0.00,,,0.00,Wunderground v.1.15,2014-03-08 01:15:00,
2014-03-07 17:21:00,51.7,44.0,30.10,ENE,72,1.0,2.0,75,0.00,,,0.00,Wunderground v.1.15,2014-03-08 01:21:00,
2014-03-07 17:26:00,51.5,44.2,30.10,ENE,78,2.0,3.0,76,0.00,,,0.00,Wunderground v.1.15,2014-03-08 01:26:00,
2014-03-07 17:32:00,51.2,45.2,30.10,ESE,110,2.0,2.0,80,0.00,,,0.00,Wunderground v.1.15,2014-03-08 01:32:00,
2014-03-07 17:38:00,50.8,45.2,30.10,East,97,1.0,2.0,81,0.00,,,0.00,Wunderground v.1.15,2014-03-08 01:38:00,
2014-03-07 17:44:00,50.4,45.1,30.09,East,91,2.0,3.0,82,0.00,,,0.00,Wunderground v.1.15,2014-03-08 01:44:00,
2014-03-07 17:50:00,50.0,44.7,30.10,East,94,2.0,2.0,82,0.00,,,0.00,Wunderground v.1.15,2014-03-08 01:50:00,
2014-03-07 17:56:00,49.8,44.8,30.10,East,79,1.0,2.0,83,0.00,,,0.00,Wunderground v.1.15,2014-03-08 01:56:00,
2014-03-07 18:01:00,49.5,44.6,30.09,East,86,1.0,2.0,83,0.00,,,0.00,Wunderground v.1.15,2014-03-08 02:01:00,
2014-03-07 18:06:00,49.1,44.5,30.09,ENE,78,2.0,3.0,84,0.00,,,0.00,Wunderground v.1.15,2014-03-08 02:06:00,
2014-03-07 18:12:00,48.9,44.6,30.09,East,101,3.0,3.0,85,0.00,,,0.00,Wunderground v.1.15,2014-03-08 02:12:00,
2014-03-07 18:17:00,48.8,44.5,30.09,East,87,3.0,3.0,85,0.00,,,0.00,Wunderground v.1.15,2014-03-08 02:17:00,
2014-03-07 18:23:00,48.7,44.4,30.09,ESE,105,3.0,3.0,85,0.00,,,0.00,Wunderground v.1.15,2014-03-08 02:23:00,
2014-03-07 18:28:00,48.8,44.2,30.09,East,99,3.0,3.0,84,0.00,,,0.00,Wunderground v.1.15,2014-03-08 02:28:00,
2014-03-07 18:34:00,48.8,44.2,30.08,East,90,3.0,3.0,84,0.00,,,0.00,Wunderground v.1.15,2014-03-08 02:34:00,
2014-03-07 18:40:00,48.9,44.0,30.08,East,100,3.0,3.0,83,0.00,,,0.00,Wunderground v.1.15,2014-03-08 02:40:00,
2014-03-07 18:46:00,49.0,44.1,30.08,East,99,3.0,3.0,83,0.00,,,0.00,Wunderground v.1.15,2014-03-08 02:46:00,
2014-03-07 18:52:00,48.7,43.8,30.08,East,80,3.0,3.0,83,0.00,,,0.00,Wunderground v.1.15,2014-03-08 02:52:00,
2014-03-07 18:57:00,48.8,43.9,30.08,ESE,110,3.0,3.0,83,0.00,,,0.00,Wunderground v.1.15,2014-03-08 02:57:00,
2014-03-07 19:03:00,48.7,43.8,30.08,East,91,3.0,3.0,83,0.00,,,0.00,Wunderground v.1.15,2014-03-08 03:03:00,
2014-03-07 19:08:00,48.3,43.7,30.08,East,97,3.0,3.0,84,0.00,,,0.00,Wunderground v.1.15,2014-03-08 03:08:00,
2014-03-07 19:14:00,48.5,43.6,30.08,East,89,3.0,3.0,83,0.00,,,0.00,Wunderground v.1.15,2014-03-08 03:14:00,
2014-03-07 19:20:00,48.2,43.6,30.07,East,81,3.0,3.0,84,0.00,,,0.00,Wunderground v.1.15,2014-03-08 03:20:00,
2014-03-07 19:25:00,48.0,43.7,30.08,ESE,110,3.0,3.0,85,0.00,,,0.00,Wunderground v.1.15,2014-03-08 03:25:00,
2014-03-07 19:31:00,48.1,43.5,30.08,East,99,2.0,2.0,84,0.00,,,0.00,Wunderground v.1.15,2014-03-08 03:31:00,
2014-03-07 19:36:00,48.0,43.7,30.08,SE,134,2.0,2.0,85,0.00,,,0.00,Wunderground v.1.15,2014-03-08 03:36:00,
2014-03-07 19:41:00,48.3,43.7,30.08,ESE,123,2.0,2.0,84,0.00,,,0.00,Wunderground v.1.15,2014-03-08 03:41:00,
2014-03-07 19:46:00,48.3,43.4,30.08,ENE,76,2.0,3.0,83,0.00,,,0.00,Wunderground v.1.15,2014-03-08 03:46:00,
2014-03-07 19:51:00,48.4,43.8,30.08,SE,126,2.0,2.0,84,0.00,,,0.00,Wunderground v.1.15,2014-03-08 03:51:00,
2014-03-07 19:57:00,48.2,43.6,30.07,East,96,2.0,3.0,84,0.00,,,0.00,Wunderground v.1.15,2014-03-08 03:57:00,
2014-03-07 20:03:00,48.1,43.2,30.07,East,82,2.0,3.0,83,0.00,,,0.00,Wunderground v.1.15,2014-03-08 04:03:00,
2014-03-07 20:09:00,48.2,43.3,30.06,East,79,3.0,4.0,83,0.00,,,0.00,Wunderground v.1.15,2014-03-08 04:09:00,
2014-03-07 20:15:00,48.2,43.3,30.06,East,93,3.0,3.0,83,0.00,,,0.00,Wunderground v.1.15,2014-03-08 04:15:00,
2014-03-07 20:21:00,48.4,43.2,30.06,East,91,3.0,3.0,82,0.00,,,0.00,Wunderground v.1.15,2014-03-08 04:21:00,
2014-03-07 20:26:00,48.7,43.1,30.06,East,88,3.0,3.0,81,0.00,,,0.00,Wunderground v.1.15,2014-03-08 04:26:00,
2014-03-07 20:31:00,48.4,43.2,30.06,ESE,105,3.0,3.0,82,0.00,,,0.00,Wunderground v.1.15,2014-03-08 04:31:00,
2014-03-07 20:36:00,48.4,42.8,30.05,East,82,3.0,3.0,81,0.00,,,0.00,Wunderground v.1.15,2014-03-08 04:36:00,
2014-03-07 20:42:00,48.0,42.8,30.06,ESE,103,3.0,3.0,82,0.00,,,0.00,Wunderground v.1.15,2014-03-08 04:42:00,
2014-03-07 20:47:00,48.3,42.7,30.05,East,85,2.0,3.0,81,0.00,,,0.00,Wunderground v.1.15,2014-03-08 04:47:00,
2014-03-07 20:53:00,48.1,42.9,30.05,East,91,2.0,5.0,82,0.00,,,0.00,Wunderground v.1.15,2014-03-08 04:53:00,
2014-03-07 20:59:00,48.3,43.1,30.06,East,93,2.0,5.0,82,0.00,,,0.00,Wunderground v.1.15,2014-03-08 04:59:00,
2014-03-07 21:01:00,48.2,43.0,30.06,ESE,102,2.0,2.0,82,0.00,,,0.00,Wunderground v.1.15,2014-03-08 05:01:00,
2014-03-07 21:04:00,48.1,42.9,30.06,East,86,2.0,3.0,82,0.00,,,0.00,Wunderground v.1.15,2014-03-08 05:04:00,
2014-03-07 21:05:00,48.1,42.9,30.06,East,93,2.0,4.0,82,0.00,,,0.00,Wunderground v.1.15,2014-03-08 05:05:00,
2014-03-07 21:07:00,48.2,42.6,30.06,East,96,2.0,4.0,81,0.00,,,0.00,Wunderground v.1.15,2014-03-08 05:07:00,
2014-03-07 21:08:00,48.2,42.6,30.06,ENE,68,2.0,4.0,81,0.00,,,0.00,Wunderground v.1.15,2014-03-08 05:08:00,
2014-03-07 21:13:00,48.3,42.7,30.05,ENE,70,3.0,4.0,81,0.00,,,0.00,Wunderground v.1.15,2014-03-08 05:13:00,
2014-03-07 21:19:00,48.1,42.9,30.05,East,79,3.0,4.0,82,0.00,,,0.00,Wunderground v.1.15,2014-03-08 05:19:00,
2014-03-07 21:24:00,48.0,42.8,30.05,East,91,3.0,4.0,82,0.00,,,0.00,Wunderground v.1.15,2014-03-08 05:24:00,
2014-03-07 21:30:00,48.2,43.0,30.04,East,82,3.0,3.0,82,0.00,,,0.00,Wunderground v.1.15,2014-03-08 05:30:00,
2014-03-07 21:35:00,47.8,42.9,30.04,ENE,77,3.0,3.0,83,0.00,,,0.00,Wunderground v.1.15,2014-03-08 05:35:00,
2014-03-07 21:41:00,47.6,42.7,30.04,ENE,58,2.0,3.0,83,0.00,,,0.00,Wunderground v.1.15,2014-03-08 05:41:00,
2014-03-07 21:42:00,47.6,42.7,30.03,East,96,2.0,3.0,83,0.00,,,0.00,Wunderground v.1.15,2014-03-08 05:42:00,
2014-03-07 21:47:00,47.3,42.4,30.03,ENE,64,2.0,5.0,83,0.00,,,0.00,Wunderground v.1.15,2014-03-08 05:47:00,
2014-03-07 21:52:00,47.3,42.4,30.03,East,80,3.0,4.0,83,0.00,,,0.00,Wunderground v.1.15,2014-03-08 05:52:00,
2014-03-07 21:58:00,46.8,41.9,30.02,East,86,3.0,5.0,83,0.00,,,0.00,Wunderground v.1.15,2014-03-08 05:58:00,
2014-03-07 22:04:00,46.9,42.0,30.03,East,94,3.0,5.0,83,0.00,,,0.00,Wunderground v.1.15,2014-03-08 06:04:00,
2014-03-07 22:08:00,46.0,41.7,30.03,ESE,103,3.0,5.0,85,0.00,,,0.00,Wunderground v.1.15,2014-03-08 06:08:00,
2014-03-07 22:14:00,45.7,41.8,30.02,East,95,4.0,4.0,86,0.00,,,0.00,Wunderground v.1.15,2014-03-08 06:14:00,
2014-03-07 22:19:00,45.5,41.6,30.02,East,94,4.0,5.0,86,0.00,,,0.00,Wunderground v.1.15,2014-03-08 06:19:00,
2014-03-07 22:24:00,45.8,41.5,30.02,East,99,4.0,5.0,85,0.00,,,0.00,Wunderground v.1.15,2014-03-08 06:24:00,
2014-03-07 22:30:00,46.0,41.4,30.02,East,98,4.0,4.0,84,0.00,,,0.00,Wunderground v.1.15,2014-03-08 06:30:00,
2014-03-07 22:36:00,45.7,41.4,30.01,East,86,4.0,6.0,85,0.00,,,0.00,Wunderground v.1.15,2014-03-08 06:36:00,
2014-03-07 22:41:00,45.3,41.4,30.01,ESE,113,4.0,4.0,86,0.00,,,0.00,Wunderground v.1.15,2014-03-08 06:41:00,
2014-03-07 22:47:00,45.1,41.2,30.01,ESE,113,4.0,4.0,86,0.00,,,0.00,Wunderground v.1.15,2014-03-08 06:47:00,
2014-03-07 22:52:00,45.7,41.4,30.01,East,86,4.0,6.0,85,0.00,,,0.00,Wunderground v.1.15,2014-03-08 06:52:00,
2014-03-07 22:58:00,45.3,41.1,30.01,East,94,4.0,6.0,85,0.00,,,0.00,Wunderground v.1.15,2014-03-08 06:58:00,
2014-03-07 23:03:00,45.2,41.0,30.01,East,79,4.0,5.0,85,0.00,,,0.00,Wunderground v.1.15,2014-03-08 07:03:00,
2014-03-07 23:09:00,45.0,41.1,30.01,East,85,4.0,5.0,86,0.00,,,0.00,Wunderground v.1.15,2014-03-08 07:09:00,
2014-03-07 23:15:00,45.0,41.1,30.00,East,82,4.0,5.0,86,0.00,,,0.00,Wunderground v.1.15,2014-03-08 07:15:00,
2014-03-07 23:21:00,45.3,40.7,30.00,ENE,76,4.0,4.0,84,0.00,,,0.00,Wunderground v.1.15,2014-03-08 07:21:00,
2014-03-07 23:27:00,45.6,41.0,30.00,East,83,4.0,4.0,84,0.00,,,0.00,Wunderground v.1.15,2014-03-08 07:27:00,
2014-03-07 23:33:00,45.1,40.9,30.00,East,99,4.0,5.0,85,0.00,,,0.00,Wunderground v.1.15,2014-03-08 07:33:00,
2014-03-07 23:39:00,44.9,40.7,30.00,ENE,76,5.0,5.0,85,0.00,,,0.00,Wunderground v.1.15,2014-03-08 07:39:00,
2014-03-07 23:45:00,45.1,40.9,30.00,East,84,5.0,6.0,85,0.00,,,0.00,Wunderground v.1.15,2014-03-08 07:45:00,
2014-03-07 23:51:00,45.0,40.8,30.00,East,81,4.0,5.0,85,0.00,,,0.00,Wunderground v.1.15,2014-03-08 07:51:00,
2014-03-07 23:56:00,44.9,40.7,30.00,ESE,103,5.0,5.0,85,0.00,,,0.00,Wunderground v.1.15,2014-03-08 07:56:00,